SCP
2 2 2 3 3 3 4 3 3 3 2 2 3 4 4 3 2 1 1 1 0 0 0 0 0 0 0 0 1 1 1 1 1 1 1 1 1 1
2 2 2 3 3 4 4 4 4 4 3 3 4 6 5 3 2 2 1 1 0 0 0 0 0 0 0 0 0 0 0 0 0 0 0 1 1 1
1 1 2 2 3 3 4 5 5 5 4 4 6 8 6 4 2 2 2 1 0 0 0 0 0 0 0 0 0 0 0 0 0 0 0 0 0 0
1 1 1 2 2 3 3 4 4 4 4 4 5 6 6 3 3 2 1 1 0 0 0 0 0 0 0 0 0 0 0 0 0 0 0 0 0 0
1 1 1 1 2 2 2 3 3 3 3 4 3 4 4 3 3 2 2 1 1 0 0 0 0 0 0 0 0 0 0 0 0 0 0 0 0 0
1 1 1 1 1 2 2 2 2 2 3 3 3 3 4 3 2 2 2 2 1 0 0 0 0 0 0 0 0 0 0 0 0 0 0 0 0 0
1 1 1 1 1 1 1 1 1 1 2 2 2 2 3 3 2 2 2 2 1 1 0 0 0 0 0 0 0 0 0 0 0 0 0 0 0 0
1 1 1 1 0 0 0 1 1 1 1 1 1 2 2 2 2 2 2 2 1 1 1 1 0 0 0 0 0 0 0 0 0 0 0 0 0 0
1 1 1 0 0 0 0 0 0 0 0 1 1 1 2 2 2 2 2 1 1 1 1 1 0 0 0 0 0 0 0 0 0 0 0 0 0 0
1 1 1 1 1 0 0 0 0 0 0 0 1 1 1 1 1 2 2 1 1 1 1 1 0 0 0 0 0 0 0 0 0 0 0 0 0 0
1 1 1 1 1 0 0 0 1 1 0 0 1 1 1 1 1 1 1 1 1 1 1 1 0 0 0 0 0 0 0 0 0 0 0 0 0 0
0 0 0 1 1 0 0 0 0 1 1 1 0 0 1 1 0 1 1 1 1 1 1 1 0 0 0 0 0 0 0 0 0 0 0 0 0 0
0 0 0 0 0 0 0 0 0 1 1 1 0 1 1 1 1 1 1 1 1 1 1 1 0 0 0 0 0 0 0 0 0 0 0 0 0 0
0 0 0 0 0 0 0 0 0 0 1 1 1 1 1 1 1 1 1 1 0 1 1 1 0 0 0 0 0 0 0 0 0 0 0 0 0 0
0 0 0 0 0 0 0 0 0 0 0 1 1 1 1 1 1 1 1 1 1 0 0 1 1 0 0 0 0 0 0 0 0 0 0 0 0 0
0 0 0 0 0 0 0 0 0 0 0 0 0 0 1 1 1 1 1 1 1 0 0 0 0 0 0 0 0 0 0 0 0 0 0 0 0 0
0 0 0 0 0 0 0 0 0 0 0 0 0 0 0 1 1 1 1 1 1 1 0 0 0 0 0 0 0 0 0 0 0 0 0 0 0 0
0 0 0 0 0 0 0 0 0 0 0 1 1 0 0 0 1 1 1 1 1 0 0 0 0 0 0 0 0 0 0 0 0 0 0 0 0 0
0 0 0 0 0 0 0 0 0 0 0 1 1 1 0 0 0 1 1 1 0 0 0 0 0 0 0 0 0 0 0 0 0 0 0 0 0 0
0 0 0 0 0 0 0 0 0 0 1 1 1 1 1 0 1 1 0 0 0 0 0 0 0 0 0 0 0 0 0 0 0 0 0 0 0 0
0 0 0 0 0 0 0 0 0 0 1 1 1 1 1 1 1 1 0 0 0 0 0 1 1 0 0 0 0 0 0 0 0 0 0 0 0 0
0 0 0 0 0 0 0 0 0 1 1 1 1 1 1 1 1 1 1 0 0 0 0 1 1 0 0 0 0 0 0 0 0 0 0 0 0 0
0 0 0 0 0 1 1 0 0 1 1 1 1 1 1 1 1 1 1 1 0 0 0 1 1 0 0 0 0 0 0 0 0 0 0 0 0 0
Wind_Speed
3 3 2 3 3 4 3 1 2 2 3 3 3 4 5 6 10 6 7 9 9 8 7 7 6 5 5 4 4 4 5 6 7 9 10 11 12 13
3 3 2 3 3 3 3 2 2 2 2 2 2 3 5 8 8 7 8 11 9 9 8 7 6 6 5 4 3 3 3 4 6 7 9 10 10 11
4 4 4 4 3 3 2 2 2 2 2 1 1 3 5 6 6 7 8 7 6 8 8 8 7 6 5 4 3 2 2 3 4 5 7 8 9 10
6 6 5 4 4 3 3 3 2 2 2 3 2 2 4 6 6 6 7 7 6 9 9 8 7 7 6 5 3 2 2 2 2 3 4 6 7 8
7 7 6 6 5 4 4 3 2 3 1 2 2 2 2 4 6 5 6 6 7 8 9 8 8 7 6 5 4 3 2 2 2 1 1 2 3 4
7 7 7 7 7 6 5 4 3 3 2 2 3 3 3 4 5 5 5 5 5 7 6 7 8 8 7 6 5 5 4 3 3 4 4 3 3 3
8 7 8 9 9 7 6 5 5 4 3 3 4 3 4 5 5 5 6 5 4 5 6 5 5 4 4 5 6 6 5 5 6 6 6 7 6 6
8 8 9 9 10 11 10 8 7 6 5 4 4 4 5 5 5 6 6 7 5 5 5 4 4 4 4 4 5 7 7 7 8 9 9 9 9 9
6 7 10 11 11 9 10 11 10 9 7 4 4 4 4 4 6 7 7 7 5 7 6 4 4 5 5 5 8 8 8 9 10 11 11 12 11 11
7 8 9 7 8 8 9 9 9 9 9 7 5 4 4 2 3 4 5 5 5 5 6 5 4 5 6 5 7 9 9 10 11 12 13 13 13 13
9 9 9 9 10 10 8 8 8 7 11 12 10 9 8 7 5 3 5 7 6 5 4 5 6 6 4 4 5 9 9 10 11 12 13 13 14 13
7 8 11 11 11 12 8 7 7 7 7 8 8 8 7 8 10 7 6 7 6 5 5 5 7 6 5 3 4 4 6 7 9 10 10 10 9 8
6 7 7 11 12 13 11 7 7 5 5 5 5 6 6 6 7 7 7 7 7 4 7 6 7 5 5 5 4 4 5 5 5 5 5 5 5 6
5 4 4 8 11 13 10 8 9 6 4 4 4 5 6 7 7 8 8 8 6 5 9 8 6 7 7 7 5 6 6 5 5 5 4 4 4 7
4 3 2 6 7 9 11 11 9 5 5 5 5 5 5 6 6 6 7 7 6 6 8 6 7 8 7 6 7 7 6 6 5 5 5 4 4 5
6 5 5 7 6 7 8 8 7 6 6 6 5 5 4 4 5 5 6 7 6 4 5 6 7 9 6 7 9 9 7 7 7 6 5 4 4 4
4 4 4 5 6 6 6 7 8 7 7 6 5 5 5 5 5 5 6 6 7 7 7 5 5 5 6 8 9 8 7 6 7 6 5 5 4 5
3 4 5 6 7 7 7 8 8 8 8 8 7 6 6 5 6 6 7 7 8 8 7 7 7 5 4 2 6 8 7 6 6 6 5 5 5 4
4 5 6 6 6 6 6 7 8 8 7 7 7 6 6 6 6 7 7 7 8 8 8 8 9 8 9 7 5 7 7 7 7 6 5 5 5 6
5 6 6 5 5 5 6 6 6 7 6 6 6 6 6 6 7 8 8 8 8 8 8 7 8 8 8 8 6 5 8 8 7 6 5 3 3 6
5 5 5 5 5 5 5 5 6 5 6 7 7 7 6 6 6 7 8 11 9 9 10 9 7 8 5 6 7 5 4 5 7 6 6 5 5 4
4 5 5 5 5 5 5 5 5 5 6 6 6 6 6 6 7 8 8 9 8 8 8 7 8 7 5 7 8 8 6 4 5 7 6 5 5 6
4 4 4 4 4 4 4 5 6 5 5 6 6 6 7 7 7 7 8 8 8 9 10 9 7 6 5 7 8 8 9 7 5 4 2 3 6 6
Wind_Direction
251 259 262 273 282 293 294 265 225 206 198 191 166 148 132 120 148 144 139 147 148 150 153 153 153 150 154 169 191 206 213 217 221 223 223 227 227 229
237 243 251 266 275 281 283 286 263 224 221 192 176 150 143 140 156 136 128 136 136 142 141 139 137 135 138 139 149 180 200 213 225 228 227 226 225 228
236 230 224 238 257 274 290 287 274 242 226 225 140 141 127 130 136 132 140 141 132 134 132 130 128 127 128 128 136 158 191 210 225 232 232 230 229 230
225 226 224 225 227 239 253 263 272 268 211 216 183 150 147 145 147 153 153 143 131 132 130 127 124 123 122 121 122 132 165 196 217 233 237 234 233 232
221 219 218 215 219 218 226 239 242 253 219 216 215 170 157 159 154 160 136 129 131 135 131 124 121 120 117 112 109 109 114 128 142 152 187 227 225 221
221 219 218 212 210 209 217 221 224 229 221 218 222 195 178 169 160 154 147 148 144 146 130 126 124 115 108 102 98 95 96 103 111 114 111 108 106 109
223 220 223 218 210 206 217 206 210 213 212 208 218 205 192 176 179 169 163 152 140 141 137 138 139 126 110 96 87 86 94 99 102 104 103 101 99 95
225 224 226 220 210 206 211 202 198 210 211 208 217 210 211 197 185 180 164 159 157 155 146 145 144 121 104 85 83 91 95 100 103 103 101 98 95 92
233 226 233 225 204 202 204 206 209 213 205 198 218 217 215 206 185 186 179 173 160 156 147 137 126 106 94 86 91 94 96 100 103 103 100 96 93 91
240 232 227 237 225 204 200 204 209 211 207 208 216 224 236 219 194 191 184 155 128 146 146 131 129 113 100 92 91 96 99 102 105 106 104 101 95 88
236 234 225 221 223 212 203 204 210 215 215 215 208 212 220 219 194 167 175 162 154 160 155 131 135 122 113 107 102 102 103 106 108 110 112 112 108 97
234 236 231 221 212 206 207 204 210 214 217 207 210 216 215 213 201 190 186 177 160 159 170 141 147 141 130 125 133 130 112 107 113 116 121 124 121 111
233 229 226 211 204 203 206 206 209 209 215 215 201 203 202 205 204 196 191 187 177 166 166 152 156 156 136 139 146 151 143 142 137 127 126 127 131 127
234 240 223 198 199 198 202 202 190 190 209 217 215 207 203 203 204 198 192 188 188 171 166 162 155 162 144 144 147 156 155 156 155 150 149 137 122 125
242 234 198 184 192 201 207 191 180 193 212 219 222 216 207 200 192 186 181 173 168 164 165 174 157 155 153 149 149 157 158 163 165 159 158 153 148 141
230 217 189 185 199 203 187 190 198 207 211 217 220 217 204 196 192 182 173 164 157 155 164 167 163 159 155 149 151 158 161 162 168 166 159 154 158 159
204 200 195 185 198 202 196 192 199 205 214 217 217 213 203 197 188 180 169 165 163 164 163 160 156 153 155 152 155 161 160 155 160 161 158 161 168 166
202 207 209 209 211 207 204 202 201 203 204 205 210 210 203 194 186 178 171 172 167 166 165 160 152 141 136 136 162 161 160 158 158 160 163 157 158 155
211 220 217 216 218 217 214 210 205 202 201 201 200 203 200 194 186 178 174 173 169 166 166 163 163 164 165 162 169 170 158 156 156 162 171 162 157 158
223 224 221 219 220 222 221 217 211 200 196 201 199 198 197 191 184 178 176 174 170 163 162 167 174 175 169 159 147 157 162 155 156 162 167 150 123 134
222 227 227 221 219 219 220 217 210 200 194 196 198 195 194 189 184 179 175 172 169 167 170 174 173 159 132 123 132 134 132 143 156 159 161 151 144 146
238 234 231 222 214 213 211 207 203 197 195 193 190 187 189 187 180 175 172 171 171 166 162 156 151 149 146 153 154 148 138 128 123 129 142 155 162 173
240 243 236 226 216 204 197 198 198 194 192 189 184 181 181 179 172 169 169 165 160 158 155 152 152 153 156 154 150 149 148 149 148 138 122 117 124 136